Time,TemperatureF,DewpointF,PressureIn,WindDirection,WindDirectionDegrees,WindSpeedMPH,WindSpeedGustMPH,Humidity,HourlyPrecipIn,Conditions,Clouds,dailyrainin,SolarRadiationWatts/m^2,SoftwareType,DateUTC
2013-04-24 00:00:00,48.1,41.3,30.03,NNE,23,2.0,15.0,77,0.00,RA,OVC,0.00,0.0,WeatherDisplay:10.37,2013-04-23 23:00:00,
2013-04-24 00:05:00,48.1,41.6,30.03,WNW,295,3.5,3.5,78,0.00,RA,OVC,0.00,0.0,WeatherDisplay:10.37,2013-04-23 23:05:00,
2013-04-24 00:10:00,48.0,41.5,30.03,North,0,2.0,4.0,78,0.00,OVC,OVC,0.00,0.0,WeatherDisplay:10.37,2013-04-23 23:10:00,
2013-04-24 00:15:00,47.9,41.7,30.03,North,354,2.0,6.0,79,0.00,OVC,OVC,0.00,0.0,WeatherDisplay:10.37,2013-04-23 23:15:00,
2013-04-24 00:20:00,47.9,41.7,30.03,NNE,15,3.0,3.0,79,0.00,OVC,,0.00,0.0,WeatherDisplay:10.37,2013-04-23 23:20:00,
2013-04-24 00:25:00,47.7,41.8,30.02,North,355,2.0,5.0,80,0.00,OVC,OVC,0.00,0.0,WeatherDisplay:10.37,2013-04-23 23:25:00,
2013-04-24 00:30:00,47.6,42.1,30.02,North,8,2.3,2.3,81,0.00,OVC,,0.00,0.0,WeatherDisplay:10.37,2013-04-23 23:30:00,
2013-04-24 00:35:00,47.5,42.0,30.03,West,264,2.3,2.3,81,0.00,OVC,,0.00,0.0,WeatherDisplay:10.37,2013-04-23 23:35:00,
2013-04-24 00:40:00,47.5,42.0,30.02,NW,316,3.5,3.5,81,0.00,OVC,,0.00,0.0,WeatherDisplay:10.37,2013-04-23 23:40:00,
2013-04-24 00:45:00,47.5,42.0,30.02,NW,323,2.0,4.0,81,0.00,OVC,OVC,0.00,0.0,WeatherDisplay:10.37,2013-04-23 23:45:00,
2013-04-24 00:50:00,47.5,42.3,30.02,West,280,2.3,2.3,82,0.00,OVC,,0.00,0.0,WeatherDisplay:10.37,2013-04-23 23:50:00,
2013-04-24 00:55:00,47.3,42.1,30.02,NW,323,1.0,2.0,82,0.00,OVC,OVC,0.00,0.0,WeatherDisplay:10.37,2013-04-23 23:55:00,
2013-04-24 01:00:00,47.2,42.3,30.02,NW,324,1.0,3.0,83,0.00,OVC,OVC,0.00,0.0,WeatherDisplay:10.37,2013-04-24 00:00:00,
2013-04-24 01:05:00,47.1,42.5,30.02,NNW,340,1.2,1.2,84,0.00,OVC,,0.00,0.0,WeatherDisplay:10.37,2013-04-24 00:05:00,
2013-04-24 01:10:00,46.9,42.4,30.01,NNW,332,0.0,1.0,84,0.00,OVC,OVC,0.00,0.0,WeatherDisplay:10.37,2013-04-24 00:10:00,
2013-04-24 01:15:00,46.8,42.2,30.01,SE,141,0.0,0.0,84,0.00,OVC,,0.00,0.0,WeatherDisplay:10.37,2013-04-24 00:15:00,
2013-04-24 01:20:00,46.8,42.2,30.01,NE,55,0.0,1.0,84,0.00,OVC,OVC,0.00,0.0,WeatherDisplay:10.37,2013-04-24 00:20:00,
2013-04-24 01:25:00,46.7,42.2,30.01,NNE,30,0.0,1.0,84,0.00,OVC,OVC,0.00,0.0,WeatherDisplay:10.37,2013-04-24 00:25:00,
2013-04-24 01:30:00,46.7,42.1,30.01,NE,44,1.2,1.2,84,0.00,OVC,,0.00,0.0,WeatherDisplay:10.37,2013-04-24 00:30:00,
2013-04-24 01:35:00,46.6,42.4,30.01,ENE,73,0.0,2.0,85,0.00,OVC,OVC,0.00,0.0,WeatherDisplay:10.37,2013-04-24 00:35:00,
2013-04-24 01:40:00,46.4,42.4,30.01,North,357,1.2,1.2,86,0.00,OVC,,0.01,0.0,WeatherDisplay:10.37,2013-04-24 00:40:00,
2013-04-24 01:45:00,46.2,42.5,30.00,South,188,0.0,0.0,87,0.01,RA,OVC,0.01,0.0,WeatherDisplay:10.37,2013-04-24 00:45:00,
2013-04-24 01:50:00,46.1,42.7,30.00,SSE,165,1.0,2.0,88,0.00,OVC,OVC,0.01,0.0,WeatherDisplay:10.37,2013-04-24 00:50:00,
2013-04-24 01:55:00,46.0,42.6,30.00,NW,319,1.2,0.0,88,0.01,OVC,,0.01,0.0,WeatherDisplay:10.37,2013-04-24 00:55:00,
2013-04-24 02:00:00,45.9,42.8,30.00,NNW,339,0.0,0.0,89,0.01,OVC,,0.01,0.0,WeatherDisplay:10.37,2013-04-24 01:00:00,
2013-04-24 02:05:00,45.9,42.8,30.00,NNW,337,0.0,1.0,89,0.00,-RA,OVC,0.01,0.0,WeatherDisplay:10.37,2013-04-24 01:05:00,
2013-04-24 02:10:00,45.8,43.0,30.00,ESE,114,0.0,0.0,90,0.02,-RA,OVC,0.02,0.0,WeatherDisplay:10.37,2013-04-24 01:10:00,
2013-04-24 02:15:00,45.7,42.9,30.00,SE,129,0.0,0.0,90,0.02,-RA,OVC,0.02,0.0,WeatherDisplay:10.37,2013-04-24 01:15:00,
2013-04-24 02:20:00,45.7,43.2,29.99,SE,130,0.0,1.0,91,0.00,-RA,OVC,0.02,0.0,WeatherDisplay:10.37,2013-04-24 01:20:00,
2013-04-24 02:25:00,45.6,43.1,29.99,SE,131,0.0,0.0,91,0.01,-RA,OVC,0.03,0.0,WeatherDisplay:10.37,2013-04-24 01:25:00,
2013-04-24 02:30:00,45.5,43.0,29.99,SE,131,0.0,0.0,91,0.00,-RA,OVC,0.03,0.0,WeatherDisplay:10.37,2013-04-24 01:30:00,
2013-04-24 02:35:00,45.5,43.0,29.98,SE,131,0.0,0.0,91,0.03,-RA,OVC,0.04,0.0,WeatherDisplay:10.37,2013-04-24 01:35:00,
2013-04-24 02:40:00,45.4,43.2,29.98,SE,131,0.0,0.0,92,0.04,-RA,OVC,0.04,0.0,WeatherDisplay:10.37,2013-04-24 01:40:00,
2013-04-24 02:45:00,45.4,43.2,29.98,SE,131,0.0,0.0,92,0.00,-RA,OVC,0.05,0.0,WeatherDisplay:10.37,2013-04-24 01:45:00,
2013-04-24 02:50:00,45.4,43.2,29.98,SE,131,0.0,0.0,92,0.04,-DZ,OVC,0.05,0.0,WeatherDisplay:10.37,2013-04-24 01:50:00,
2013-04-24 02:55:00,45.4,43.2,29.98,SE,131,0.0,0.0,92,0.00,-DZ,OVC,0.05,0.0,WeatherDisplay:10.37,2013-04-24 01:55:00,
2013-04-24 03:00:00,45.4,43.2,29.97,SE,131,0.0,0.0,92,0.00,-DZ,OVC,0.05,0.0,WeatherDisplay:10.37,2013-04-24 02:00:00,
2013-04-24 03:05:00,45.4,43.2,29.97,SE,131,0.0,0.0,92,0.05,-RA,OVC,0.06,0.0,WeatherDisplay:10.37,2013-04-24 02:05:00,
2013-04-24 03:10:00,45.3,43.1,29.97,SE,131,0.0,0.0,92,0.05,-RA,OVC,0.06,0.0,WeatherDisplay:10.37,2013-04-24 02:10:00,
2013-04-24 03:15:00,45.3,43.1,29.97,SE,131,0.0,0.0,92,0.00,-RA,OVC,0.06,0.0,WeatherDisplay:10.37,2013-04-24 02:15:00,
2013-04-24 03:20:00,45.3,43.4,29.96,SE,131,0.0,0.0,93,0.00,-RA,OVC,0.07,0.0,WeatherDisplay:10.37,2013-04-24 02:20:00,
2013-04-24 03:25:00,45.3,43.4,29.96,SE,131,0.0,0.0,93,0.04,-RA,OVC,0.07,0.0,WeatherDisplay:10.37,2013-04-24 02:25:00,
2013-04-24 03:30:00,45.3,43.4,29.96,SE,131,0.0,0.0,93,0.04,-RA,OVC,0.08,0.0,WeatherDisplay:10.37,2013-04-24 02:30:00,
2013-04-24 03:36:00,45.4,43.5,29.96,SE,131,0.0,0.0,93,0.04,-RA,OVC,0.08,0.0,WeatherDisplay:10.37,2013-04-24 02:36:00,
2013-04-24 03:41:00,45.5,43.6,29.95,SE,131,0.0,0.0,93,0.05,-RA,OVC,0.09,0.0,WeatherDisplay:10.37,2013-04-24 02:41:00,
2013-04-24 03:47:00,45.4,43.5,29.95,SE,131,0.0,0.0,93,0.04,-RA,OVC,0.09,0.0,WeatherDisplay:10.37,2013-04-24 02:47:00,
2013-04-24 03:52:00,45.4,43.5,29.94,SE,131,0.0,0.0,93,0.04,-RA,OVC,0.09,0.0,WeatherDisplay:10.37,2013-04-24 02:52:00,
2013-04-24 03:57:00,45.4,43.5,29.94,SE,131,0.0,0.0,93,0.04,-RA,OVC,0.09,0.0,WeatherDisplay:10.37,2013-04-24 02:57:00,
2013-04-24 04:03:00,45.4,43.5,29.93,SE,131,0.0,0.0,93,0.05,-RA,OVC,0.10,0.0,WeatherDisplay:10.37,2013-04-24 03:03:00,
2013-04-24 04:08:00,45.5,43.6,29.93,SE,131,0.0,0.0,93,0.05,-RA,OVC,0.11,0.0,WeatherDisplay:10.37,2013-04-24 03:08:00,
2013-04-24 04:13:00,45.5,43.6,29.93,SE,131,0.0,0.0,93,0.06,-RA,OVC,0.12,0.0,WeatherDisplay:10.37,2013-04-24 03:13:00,
2013-04-24 04:18:00,45.4,43.5,29.93,SE,131,0.0,0.0,93,0.06,-RA,OVC,0.13,0.0,WeatherDisplay:10.37,2013-04-24 03:18:00,
2013-04-24 04:24:00,45.5,43.9,29.93,SE,131,0.0,0.0,94,0.07,-RA,OVC,0.14,0.0,WeatherDisplay:10.37,2013-04-24 03:24:00,
2013-04-24 04:29:00,45.5,43.9,29.92,SE,131,0.0,0.0,94,0.08,-RA,OVC,0.15,0.0,WeatherDisplay:10.37,2013-04-24 03:29:00,
2013-04-24 04:34:00,45.5,43.9,29.92,SE,131,0.0,0.0,94,0.08,-RA,OVC,0.16,0.0,WeatherDisplay:10.37,2013-04-24 03:34:00,
2013-04-24 04:40:00,45.5,43.9,29.92,SE,131,0.0,0.0,94,0.09,-RA,OVC,0.17,0.0,WeatherDisplay:10.37,2013-04-24 03:40:00,
2013-04-24 04:45:00,45.5,43.9,29.92,SE,131,0.0,0.0,94,0.09,-RA,OVC,0.17,0.0,WeatherDisplay:10.37,2013-04-24 03:45:00,
2013-04-24 04:50:00,45.5,43.9,29.92,SE,131,0.0,0.0,94,0.09,-RA,OVC,0.18,0.0,WeatherDisplay:10.37,2013-04-24 03:50:00,
2013-04-24 04:56:00,45.5,43.9,29.91,SSW,200,1.2,0.0,94,0.09,-RA,OVC,0.19,0.0,WeatherDisplay:10.37,2013-04-24 03:56:00,
2013-04-24 05:01:00,45.4,43.8,29.91,SSW,201,0.0,0.0,94,0.09,-RA,OVC,0.20,0.0,WeatherDisplay:10.37,2013-04-24 04:01:00,
2013-04-24 05:06:00,45.4,43.8,29.91,SSW,201,0.0,0.0,94,0.09,-RA,OVC,0.20,0.0,WeatherDisplay:10.37,2013-04-24 04:06:00,
2013-04-24 05:11:00,45.4,43.8,29.91,SSW,201,0.0,0.0,94,0.09,-RA,OVC,0.21,0.0,WeatherDisplay:10.37,2013-04-24 04:11:00,
2013-04-24 05:16:00,45.4,43.8,29.91,SSW,201,0.0,0.0,94,0.09,-RA,OVC,0.21,0.0,WeatherDisplay:10.37,2013-04-24 04:16:00,
2013-04-24 05:21:00,45.4,43.8,29.91,SE,139,1.2,1.2,94,0.09,-RA,OVC,0.22,0.0,WeatherDisplay:10.37,2013-04-24 04:21:00,
2013-04-24 05:26:00,45.4,43.8,29.90,SE,139,0.0,0.0,94,0.09,-RA,OVC,0.23,0.0,WeatherDisplay:10.37,2013-04-24 04:26:00,
2013-04-24 05:31:00,45.4,43.8,29.90,SE,139,0.0,0.0,94,0.09,-RA,OVC,0.24,0.0,WeatherDisplay:10.37,2013-04-24 04:31:00,
2013-04-24 05:36:00,45.4,43.8,29.90,SE,138,0.0,0.0,94,0.08,-RA,OVC,0.24,0.0,WeatherDisplay:10.37,2013-04-24 04:36:00,
2013-04-24 05:41:00,45.4,43.8,29.90,SE,138,0.0,0.0,94,0.07,-RA,OVC,0.24,0.0,WeatherDisplay:10.37,2013-04-24 04:41:00,
2013-04-24 05:46:00,45.4,43.8,29.90,SE,139,0.0,0.0,94,0.07,-RA,OVC,0.24,0.0,WeatherDisplay:10.37,2013-04-24 04:46:00,
2013-04-24 05:51:00,45.4,43.8,29.90,SE,139,0.0,0.0,94,0.06,-RA,OVC,0.24,0.0,WeatherDisplay:10.37,2013-04-24 04:51:00,
2013-04-24 05:56:00,45.4,43.8,29.90,SE,139,0.0,0.0,94,0.06,-RA,OVC,0.24,0.0,WeatherDisplay:10.37,2013-04-24 04:56:00,
2013-04-24 06:01:00,45.5,43.9,29.90,SE,139,0.0,0.0,94,0.05,-RA,OVC,0.24,0.0,WeatherDisplay:10.37,2013-04-24 05:01:00,
2013-04-24 06:06:00,45.5,43.9,29.90,SE,138,0.0,0.0,94,0.04,-RA,OVC,0.24,0.0,WeatherDisplay:10.37,2013-04-24 05:06:00,
2013-04-24 06:11:00,45.6,44.0,29.90,SE,139,0.0,0.0,94,0.03,-RA,OVC,0.24,0.0,WeatherDisplay:10.37,2013-04-24 05:11:00,
2013-04-24 06:16:00,45.6,44.0,29.90,SE,139,0.0,0.0,94,0.03,-RA,OVC,0.24,0.0,WeatherDisplay:10.37,2013-04-24 05:16:00,
2013-04-24 06:21:00,45.6,44.0,29.89,SE,139,0.0,0.0,94,0.02,-RA,OVC,0.24,0.0,WeatherDisplay:10.37,2013-04-24 05:21:00,
2013-04-24 06:26:00,45.7,44.1,29.89,SE,138,0.0,0.0,94,0.02,-RA,OVC,0.24,0.0,WeatherDisplay:10.37,2013-04-24 05:26:00,
2013-04-24 06:31:00,45.6,44.0,29.89,SE,139,0.0,0.0,94,0.01,-RA,OVC,0.24,0.0,WeatherDisplay:10.37,2013-04-24 05:31:00,
2013-04-24 06:36:00,45.7,44.1,29.89,SE,138,0.0,0.0,94,0.01,-RA,OVC,0.24,0.0,WeatherDisplay:10.37,2013-04-24 05:36:00,
2013-04-24 06:41:00,45.7,44.1,29.89,SE,139,0.0,0.0,94,0.00,-RA,OVC,0.24,0.0,WeatherDisplay:10.37,2013-04-24 05:41:00,
2013-04-24 06:46:00,45.7,44.1,29.89,SE,139,0.0,0.0,94,0.00,-RA,OVC,0.24,0.0,WeatherDisplay:10.37,2013-04-24 05:46:00,
2013-04-24 06:52:00,45.7,44.1,29.89,SE,139,0.0,0.0,94,0.00,-RA,OVC,0.24,0.0,WeatherDisplay:10.37,2013-04-24 05:52:00,
2013-04-24 06:57:00,45.8,44.4,29.89,SE,139,0.0,0.0,95,0.00,-RA,OVC,0.24,0.0,WeatherDisplay:10.37,2013-04-24 05:57:00,
2013-04-24 07:02:00,45.8,44.4,29.89,SE,138,0.0,0.0,95,0.00,OVC,,0.24,0.0,WeatherDisplay:10.37,2013-04-24 06:02:00,
2013-04-24 07:07:00,45.9,44.5,29.89,SE,138,0.0,0.0,95,0.00,OVC,,0.24,0.0,WeatherDisplay:10.37,2013-04-24 06:07:00,
2013-04-24 07:12:00,45.8,44.4,29.89,SE,139,0.0,0.0,95,0.00,OVC,,0.24,0.0,WeatherDisplay:10.37,2013-04-24 06:12:00,
2013-04-24 07:17:00,45.9,44.5,29.89,SE,139,0.0,0.0,95,0.00,OVC,,0.24,0.0,WeatherDisplay:10.37,2013-04-24 06:17:00,
2013-04-24 07:22:00,46.0,44.6,29.89,SE,139,0.0,0.0,95,0.00,OVC,,0.24,0.0,WeatherDisplay:10.37,2013-04-24 06:22:00,
2013-04-24 07:27:00,46.4,45.0,29.89,SE,139,0.0,0.0,95,0.00,OVC,,0.24,0.0,WeatherDisplay:10.37,2013-04-24 06:27:00,
2013-04-24 07:32:00,46.8,45.4,29.89,SW,225,1.2,1.2,95,0.00,-RA,OVC,0.24,0.0,WeatherDisplay:10.37,2013-04-24 06:32:00,
2013-04-24 07:37:00,47.2,45.8,29.89,WSW,240,1.2,1.2,95,0.00,-RA,OVC,0.24,0.0,WeatherDisplay:10.37,2013-04-24 06:37:00,
2013-04-24 07:42:00,47.4,46.0,29.89,NW,323,0.0,0.0,95,0.00,-RA,OVC,0.24,0.0,WeatherDisplay:10.37,2013-04-24 06:42:00,
2013-04-24 07:47:00,47.6,46.2,29.89,North,354,1.2,0.0,95,0.00,-RA,OVC,0.24,0.0,WeatherDisplay:10.37,2013-04-24 06:47:00,
2013-04-24 07:52:00,47.9,46.5,29.89,NNW,338,1.2,0.0,95,0.00,-RA,OVC,0.24,0.0,WeatherDisplay:10.37,2013-04-24 06:52:00,
2013-04-24 07:57:00,48.1,46.7,29.90,NNW,339,1.2,0.0,95,0.00,-RA,OVC,0.24,0.0,WeatherDisplay:10.37,2013-04-24 06:57:00,
2013-04-24 08:02:00,48.2,46.8,29.90,WNW,282,0.0,0.0,95,0.00,-RA,OVC,0.24,0.0,WeatherDisplay:10.37,2013-04-24 07:02:00,
2013-04-24 08:07:00,48.3,46.9,29.90,WNW,303,1.2,1.2,95,0.00,-RA,OVC,0.24,0.0,WeatherDisplay:10.37,2013-04-24 07:07:00,
2013-04-24 08:12:00,48.4,47.0,29.90,NW,309,2.3,2.3,95,0.00,-RA,OVC,0.24,0.0,WeatherDisplay:10.37,2013-04-24 07:12:00,
2013-04-24 08:17:00,48.4,47.0,29.90,NW,310,1.2,1.2,95,0.00,OVC,,0.24,0.0,WeatherDisplay:10.37,2013-04-24 07:17:00,
2013-04-24 08:22:00,48.5,46.9,29.90,WNW,290,2.3,2.3,94,0.01,RA,OVC,0.25,0.0,WeatherDisplay:10.37,2013-04-24 07:22:00,
2013-04-24 08:27:00,48.4,46.8,29.91,NNW,336,2.3,2.3,94,0.01,RA,OVC,0.25,0.0,WeatherDisplay:10.37,2013-04-24 07:27:00,
2013-04-24 08:32:00,48.3,46.7,29.91,NW,307,2.3,2.3,94,0.01,OVC,,0.25,0.0,WeatherDisplay:10.37,2013-04-24 07:32:00,
2013-04-24 08:37:00,48.2,46.6,29.91,NW,312,3.5,3.5,94,0.01,OVC,,0.25,0.0,WeatherDisplay:10.37,2013-04-24 07:37:00,
2013-04-24 08:42:00,48.3,46.9,29.91,NW,321,2.3,2.3,95,0.01,OVC,,0.25,0.0,WeatherDisplay:10.37,2013-04-24 07:42:00,
2013-04-24 08:47:00,48.3,46.9,29.91,NW,321,2.3,2.3,95,0.01,OVC,,0.25,0.0,WeatherDisplay:10.37,2013-04-24 07:47:00,
2013-04-24 08:52:00,48.1,46.7,29.92,WNW,300,3.5,3.5,95,0.01,OVC,,0.25,0.0,WeatherDisplay:10.37,2013-04-24 07:52:00,
2013-04-24 08:57:00,48.1,46.7,29.92,NW,307,2.3,2.3,95,0.01,OVC,,0.25,0.0,WeatherDisplay:10.37,2013-04-24 07:57:00,
2013-04-24 09:02:00,48.1,46.7,29.92,WNW,302,2.3,2.3,95,0.02,RA,OVC,0.26,0.0,WeatherDisplay:10.37,2013-04-24 08:02:00,
2013-04-24 09:07:00,48.3,46.9,29.93,West,264,3.0,3.0,95,0.02,RA,OVC,0.26,0.0,WeatherDisplay:10.37,2013-04-24 08:07:00,
2013-04-24 09:12:00,48.3,46.9,29.93,NW,325,3.5,3.5,95,0.02,OVC,,0.26,0.0,WeatherDisplay:10.37,2013-04-24 08:12:00,
2013-04-24 09:17:00,48.4,47.0,29.93,NW,317,4.0,4.0,95,0.02,OVC,,0.26,0.0,WeatherDisplay:10.37,2013-04-24 08:17:00,
2013-04-24 09:22:00,48.5,47.1,29.94,NW,321,3.5,3.5,95,0.01,OVC,,0.26,0.0,WeatherDisplay:10.37,2013-04-24 08:22:00,
2013-04-24 09:28:00,48.6,47.2,29.94,North,351,3.5,3.5,95,0.01,OVC,,0.26,0.0,WeatherDisplay:10.37,2013-04-24 08:28:00,
2013-04-24 09:33:00,48.7,47.3,29.94,NW,314,3.5,3.5,95,0.01,OVC,,0.26,0.0,WeatherDisplay:10.37,2013-04-24 08:33:00,
2013-04-24 09:38:00,48.7,47.3,29.94,NW,312,2.3,2.3,95,0.01,OVC,,0.26,0.0,WeatherDisplay:10.37,2013-04-24 08:38:00,
2013-04-24 09:43:00,48.7,47.1,29.95,NNW,332,3.5,3.5,94,0.01,OVC,,0.26,0.0,WeatherDisplay:10.37,2013-04-24 08:43:00,
2013-04-24 09:48:00,48.7,47.1,29.95,NNW,331,3.5,3.5,94,0.01,OVC,,0.26,0.0,WeatherDisplay:10.37,2013-04-24 08:48:00,
2013-04-24 09:53:00,48.6,47.0,29.95,NW,305,3.5,3.5,94,0.01,OVC,,0.26,0.0,WeatherDisplay:10.37,2013-04-24 08:53:00,
2013-04-24 09:58:00,48.6,47.0,29.95,NNW,335,3.5,3.5,94,0.01,OVC,,0.26,0.0,WeatherDisplay:10.37,2013-04-24 08:58:00,
2013-04-24 10:03:00,48.8,46.9,29.95,NW,305,4.6,4.6,93,0.00,-RA,OVC,0.26,0.0,WeatherDisplay:10.37,2013-04-24 09:03:00,
2013-04-24 10:08:00,49.0,46.8,29.96,NW,315,3.5,3.5,92,0.00,-RA,OVC,0.26,0.0,WeatherDisplay:10.37,2013-04-24 09:08:00,
2013-04-24 10:13:00,49.5,47.6,29.96,NW,323,4.0,4.0,93,0.00,-RA,OVC,0.26,0.0,WeatherDisplay:10.37,2013-04-24 09:13:00,
2013-04-24 10:18:00,49.8,47.6,29.96,NNW,328,5.8,5.8,92,0.00,-RA,OVC,0.26,0.0,WeatherDisplay:10.37,2013-04-24 09:18:00,
2013-04-24 10:23:00,50.0,47.5,29.96,NE,40,5.0,5.0,91,0.00,-RA,OVC,0.26,0.0,WeatherDisplay:10.37,2013-04-24 09:23:00,
2013-04-24 10:28:00,50.1,46.7,29.97,WNW,297,5.8,5.8,88,0.00,-RA,OVC,0.26,0.0,WeatherDisplay:10.37,2013-04-24 09:28:00,
2013-04-24 10:33:00,50.2,46.5,29.97,West,263,5.8,5.8,87,0.00,-RA,OVC,0.26,0.0,WeatherDisplay:10.37,2013-04-24 09:33:00,
2013-04-24 10:38:00,50.3,46.3,29.98,NW,325,8.1,8.1,86,0.00,-RA,OVC,0.26,0.0,WeatherDisplay:10.37,2013-04-24 09:38:00,
2013-04-24 10:43:00,50.2,45.9,29.98,NNW,332,10.4,10.4,85,0.00,-RA,OVC,0.26,0.0,WeatherDisplay:10.37,2013-04-24 09:43:00,
2013-04-24 10:48:00,50.1,45.5,29.99,NW,316,5.8,5.8,84,0.00,-RA,OVC,0.26,0.0,WeatherDisplay:10.37,2013-04-24 09:48:00,
2013-04-24 10:53:00,50.1,45.1,29.99,WNW,290,4.6,4.6,83,0.00,-RA,OVC,0.26,0.0,WeatherDisplay:10.37,2013-04-24 09:53:00,
2013-04-24 10:58:00,50.3,45.3,30.00,WNW,302,4.6,4.6,83,0.00,-RA,OVC,0.26,0.0,WeatherDisplay:10.37,2013-04-24 09:58:00,
2013-04-24 11:03:00,50.4,45.7,30.00,NW,314,3.5,3.5,84,0.00,-RA,OVC,0.26,0.0,WeatherDisplay:10.37,2013-04-24 10:03:00,
2013-04-24 11:08:00,50.9,46.2,30.00,North,6,4.0,4.0,84,0.00,-RA,OVC,0.26,0.0,WeatherDisplay:10.37,2013-04-24 10:08:00,
2013-04-24 11:13:00,51.3,46.3,30.00,NW,316,3.0,3.0,83,0.00,-RA,OVC,0.26,0.0,WeatherDisplay:10.37,2013-04-24 10:13:00,
2013-04-24 11:18:00,51.8,45.8,30.00,North,355,6.9,6.9,80,0.00,BKN,OVC,0.26,0.0,WeatherDisplay:10.37,2013-04-24 10:18:00,
2013-04-24 11:23:00,52.1,46.4,30.01,NNW,341,4.6,4.6,81,0.00,BKN,OVC,0.26,0.0,WeatherDisplay:10.37,2013-04-24 10:23:00,
2013-04-24 11:28:00,52.6,46.6,30.01,NW,307,5.8,5.8,80,0.00,BKN,OVC,0.26,0.0,WeatherDisplay:10.37,2013-04-24 10:28:00,
2013-04-24 11:33:00,52.5,45.8,30.02,WNW,291,6.9,6.9,78,0.00,BKN,OVC,0.26,0.0,WeatherDisplay:10.37,2013-04-24 10:33:00,
2013-04-24 11:38:00,52.6,46.3,30.02,West,278,7.0,7.0,79,0.00,BKN,OVC,0.26,0.0,WeatherDisplay:10.37,2013-04-24 10:38:00,
2013-04-24 11:43:00,52.6,45.6,30.02,NW,319,6.0,6.0,77,0.00,BKN,OVC,0.26,0.0,WeatherDisplay:10.37,2013-04-24 10:43:00,
2013-04-24 11:48:00,52.9,45.5,30.02,NNW,332,8.1,8.1,76,0.00,BKN,OVC,0.26,0.0,WeatherDisplay:10.37,2013-04-24 10:48:00,
2013-04-24 11:53:00,53.3,46.3,30.02,WNW,297,4.6,4.6,77,0.00,BKN,OVC,0.26,0.0,WeatherDisplay:10.37,2013-04-24 10:53:00,
2013-04-24 11:58:00,53.4,45.7,30.03,WSW,246,9.2,9.2,75,0.00,BKN,OVC,0.26,0.0,WeatherDisplay:10.37,2013-04-24 10:58:00,
2013-04-24 12:03:00,53.4,45.3,30.03,NW,318,8.1,8.1,74,0.00,SCT,OVC,0.26,0.0,WeatherDisplay:10.37,2013-04-24 11:03:00,
2013-04-24 12:08:00,53.2,44.4,30.03,NW,322,8.1,8.1,72,0.00,SCT,OVC,0.26,0.0,WeatherDisplay:10.37,2013-04-24 11:08:00,
2013-04-24 12:13:00,53.2,44.4,30.04,North,4,5.8,5.8,72,0.00,SCT,OVC,0.26,0.0,WeatherDisplay:10.37,2013-04-24 11:13:00,
2013-04-24 12:18:00,53.4,45.0,30.04,SW,232,6.0,6.0,73,0.00,SCT,OVC,0.26,0.0,WeatherDisplay:10.37,2013-04-24 11:18:00,
2013-04-24 12:23:00,53.6,44.8,30.05,NNW,330,5.8,5.8,72,0.00,SCT,OVC,0.26,0.0,WeatherDisplay:10.37,2013-04-24 11:23:00,
2013-04-24 12:28:00,53.5,45.1,30.06,NW,305,5.8,5.8,73,0.00,SCT,OVC,0.26,0.0,WeatherDisplay:10.37,2013-04-24 11:28:00,
2013-04-24 12:33:00,53.2,44.8,30.06,NW,304,6.0,6.0,73,0.00,BKN,OVC,0.26,0.0,WeatherDisplay:10.37,2013-04-24 11:33:00,
2013-04-24 12:38:00,53.8,45.3,30.06,NNW,336,5.8,5.8,73,0.00,BKN,OVC,0.26,0.0,WeatherDisplay:10.37,2013-04-24 11:38:00,
2013-04-24 12:43:00,54.3,44.7,30.06,North,358,6.9,6.9,70,0.00,BKN,OVC,0.26,0.0,WeatherDisplay:10.37,2013-04-24 11:43:00,
2013-04-24 12:48:00,54.6,44.2,30.06,NE,44,6.9,6.9,68,0.00,BKN,OVC,0.26,0.0,WeatherDisplay:10.37,2013-04-24 11:48:00,
2013-04-24 12:53:00,54.7,45.1,30.06,West,278,4.0,4.0,70,0.00,BKN,OVC,0.26,0.0,WeatherDisplay:10.37,2013-04-24 11:53:00,
2013-04-24 12:58:00,54.2,43.5,30.07,NNW,338,5.8,5.8,67,0.00,BKN,OVC,0.26,0.0,WeatherDisplay:10.37,2013-04-24 11:58:00,
2013-04-24 13:03:00,54.1,43.8,30.07,NNE,22,9.2,9.2,68,0.00,BKN,OVC,0.26,0.0,WeatherDisplay:10.37,2013-04-24 12:03:00,
2013-04-24 13:08:00,54.1,44.2,30.07,WNW,302,5.8,5.8,69,0.00,BKN,OVC,0.26,0.0,WeatherDisplay:10.37,2013-04-24 12:08:00,
2013-04-24 13:13:00,53.9,44.0,30.07,NNW,343,9.2,9.2,69,0.00,BKN,OVC,0.26,0.0,WeatherDisplay:10.37,2013-04-24 12:13:00,
2013-04-24 13:18:00,54.3,44.7,30.07,NW,304,9.2,9.2,70,0.00,BKN,OVC,0.26,0.0,WeatherDisplay:10.37,2013-04-24 12:18:00,
2013-04-24 13:23:00,54.4,44.1,30.08,NW,304,6.9,6.9,68,0.00,BKN,OVC,0.26,0.0,WeatherDisplay:10.37,2013-04-24 12:23:00,
2013-04-24 13:28:00,54.6,42.7,30.08,NW,318,5.8,5.8,64,0.00,BKN,OVC,0.26,0.0,WeatherDisplay:10.37,2013-04-24 12:28:00,
2013-04-24 13:33:00,54.7,41.9,30.08,West,281,4.6,4.6,62,0.00,SCT,OVC,0.26,0.0,WeatherDisplay:10.37,2013-04-24 12:33:00,
2013-04-24 13:38:00,54.5,40.9,30.09,WNW,297,6.9,6.9,60,0.00,SCT,OVC,0.26,0.0,WeatherDisplay:10.37,2013-04-24 12:38:00,
2013-04-24 13:43:00,54.4,42.9,30.09,NNW,347,4.6,4.6,65,0.00,SCT,OVC,0.26,0.0,WeatherDisplay:10.37,2013-04-24 12:43:00,
2013-04-24 13:48:00,54.7,41.5,30.09,NNW,339,8.1,8.1,61,0.00,SCT,OVC,0.26,0.0,WeatherDisplay:10.37,2013-04-24 12:48:00,
2013-04-24 13:53:00,55.2,42.8,30.10,North,359,6.9,6.9,63,0.00,SCT,OVC,0.26,0.0,WeatherDisplay:10.37,2013-04-24 12:53:00,
2013-04-24 13:58:00,55.3,43.3,30.10,NNE,29,3.5,3.5,64,0.00,SCT,OVC,0.26,0.0,WeatherDisplay:10.37,2013-04-24 12:58:00,
2013-04-24 14:03:00,55.4,43.4,30.10,NNW,340,4.6,4.6,64,0.00,SCT,OVC,0.26,0.0,WeatherDisplay:10.37,2013-04-24 13:03:00,
2013-04-24 14:08:00,55.3,40.8,30.09,NNW,330,5.8,5.8,58,0.00,SCT,OVC,0.26,0.0,WeatherDisplay:10.37,2013-04-24 13:08:00,
2013-04-24 14:13:00,55.0,40.5,30.09,NW,311,5.8,5.8,58,0.00,SCT,OVC,0.26,0.0,WeatherDisplay:10.37,2013-04-24 13:13:00,
2013-04-24 14:18:00,55.4,41.7,30.10,NNW,342,6.9,6.9,60,0.00,SCT,OVC,0.26,0.0,WeatherDisplay:10.37,2013-04-24 13:18:00,
2013-04-24 14:23:00,54.9,41.3,30.10,WNW,302,5.8,5.8,60,0.00,SCT,OVC,0.26,0.0,WeatherDisplay:10.37,2013-04-24 13:23:00,
2013-04-24 14:28:00,54.7,40.6,30.10,NW,323,8.1,8.1,59,0.00,SCT,OVC,0.26,0.0,WeatherDisplay:10.37,2013-04-24 13:28:00,
2013-04-24 14:33:00,54.2,40.6,30.11,NNW,347,4.6,4.6,60,0.00,SCT,OVC,0.26,0.0,WeatherDisplay:10.37,2013-04-24 13:33:00,
2013-04-24 14:38:00,53.5,40.4,30.11,NW,318,6.9,6.9,61,0.00,SCT,OVC,0.26,0.0,WeatherDisplay:10.37,2013-04-24 13:38:00,
2013-04-24 14:43:00,52.6,40.4,30.11,NNW,344,6.9,6.9,63,0.00,SCT,OVC,0.26,0.0,WeatherDisplay:10.37,2013-04-24 13:43:00,
2013-04-24 14:48:00,52.2,39.6,30.11,NW,314,8.1,8.1,62,0.00,SCT,OVC,0.26,0.0,WeatherDisplay:10.37,2013-04-24 13:48:00,
2013-04-24 14:54:00,53.0,39.9,30.11,West,281,5.8,5.8,61,0.00,SCT,OVC,0.26,0.0,WeatherDisplay:10.37,2013-04-24 13:54:00,
2013-04-24 14:59:00,53.4,39.4,30.11,NNW,342,6.9,6.9,59,0.00,SCT,OVC,0.26,0.0,WeatherDisplay:10.37,2013-04-24 13:59:00,
2013-04-24 15:04:00,53.7,38.8,30.11,NW,318,5.8,5.8,57,0.00,SCT,OVC,0.26,0.0,WeatherDisplay:10.37,2013-04-24 14:04:00,
2013-04-24 15:09:00,54.3,40.3,30.12,NNW,340,6.9,6.9,59,0.00,SCT,OVC,0.26,0.0,WeatherDisplay:10.37,2013-04-24 14:09:00,
2013-04-24 15:14:00,54.5,38.2,30.12,NW,322,3.5,3.5,54,0.00,SCT,OVC,0.26,0.0,WeatherDisplay:10.37,2013-04-24 14:14:00,
2013-04-24 15:19:00,55.0,38.2,30.12,West,276,6.9,6.9,53,0.00,SCT,OVC,0.26,0.0,WeatherDisplay:10.37,2013-04-24 14:19:00,
2013-04-24 15:24:00,55.0,39.1,30.13,WSW,255,4.0,4.0,55,0.00,SCT,OVC,0.26,0.0,WeatherDisplay:10.37,2013-04-24 14:24:00,
2013-04-24 15:29:00,55.1,39.7,30.13,East,97,3.5,3.5,56,0.00,SCT,OVC,0.26,0.0,WeatherDisplay:10.37,2013-04-24 14:29:00,
2013-04-24 15:34:00,55.0,38.6,30.13,North,6,5.0,5.0,54,0.00,SCT,OVC,0.26,0.0,WeatherDisplay:10.37,2013-04-24 14:34:00,
2013-04-24 15:39:00,55.0,37.7,30.13,North,350,6.9,6.9,52,0.00,SCT,OVC,0.26,0.0,WeatherDisplay:10.37,2013-04-24 14:39:00,
2013-04-24 15:44:00,54.9,38.1,30.13,NNE,20,4.6,4.6,53,0.00,SCT,OVC,0.26,0.0,WeatherDisplay:10.37,2013-04-24 14:44:00,
2013-04-24 15:50:00,54.9,37.6,30.12,NNW,331,6.0,6.0,52,0.00,SCT,OVC,0.26,0.0,WeatherDisplay:10.37,2013-04-24 14:50:00,
2013-04-24 15:54:00,54.6,37.8,30.13,NW,308,4.6,4.6,53,0.00,SCT,OVC,0.26,0.0,WeatherDisplay:10.37,2013-04-24 14:54:00,
2013-04-24 15:59:00,54.7,36.9,30.13,WNW,301,8.1,8.1,51,0.00,SCT,OVC,0.26,0.0,WeatherDisplay:10.37,2013-04-24 14:59:00,
2013-04-24 16:04:00,54.7,36.9,30.14,NW,314,5.8,5.8,51,0.00,SCT,OVC,0.26,0.0,WeatherDisplay:10.37,2013-04-24 15:04:00,
2013-04-24 16:09:00,55.0,37.7,30.13,WNW,302,6.0,6.0,52,0.00,SCT,OVC,0.26,0.0,WeatherDisplay:10.37,2013-04-24 15:09:00,
2013-04-24 16:15:00,55.5,38.1,30.14,NW,309,3.5,3.5,52,0.00,SCT,OVC,0.26,0.0,WeatherDisplay:10.37,2013-04-24 15:15:00,
2013-04-24 16:20:00,55.2,36.4,30.14,East,83,6.9,6.9,49,0.00,SCT,OVC,0.26,0.0,WeatherDisplay:10.37,2013-04-24 15:20:00,
2013-04-24 16:25:00,55.1,37.8,30.14,NNW,337,3.5,3.5,52,0.00,SCT,OVC,0.26,0.0,WeatherDisplay:10.37,2013-04-24 15:25:00,
2013-04-24 16:30:00,54.8,38.0,30.14,WNW,293,3.5,3.5,53,0.00,SCT,OVC,0.26,0.0,WeatherDisplay:10.37,2013-04-24 15:30:00,
2013-04-24 16:35:00,54.3,38.5,30.14,NW,307,5.0,5.0,55,0.00,SCT,OVC,0.26,0.0,WeatherDisplay:10.37,2013-04-24 15:35:00,
2013-04-24 16:40:00,53.6,36.9,30.14,NNE,13,5.8,5.8,53,0.00,SCT,OVC,0.26,0.0,WeatherDisplay:10.37,2013-04-24 15:40:00,
2013-04-24 16:45:00,53.1,35.4,30.14,NNW,330,6.9,6.9,51,0.00,SCT,OVC,0.26,0.0,WeatherDisplay:10.37,2013-04-24 15:45:00,
2013-04-24 16:50:00,52.8,34.7,30.15,NW,315,4.0,4.1,50,0.00,SCT,OVC,0.26,0.0,WeatherDisplay:10.37,2013-04-24 15:50:00,
2013-04-24 16:55:00,52.8,35.7,30.15,NW,317,5.0,11.0,52,0.00,SCT,OVC,0.26,0.0,WeatherDisplay:10.37,2013-04-24 15:55:00,
2013-04-24 17:00:00,53.0,35.8,30.15,NW,317,3.0,11.0,52,0.00,SCT,OVC,0.26,0.0,WeatherDisplay:10.37,2013-04-24 16:00:00,
2013-04-24 17:05:00,53.1,34.4,30.15,NW,316,2.0,6.0,49,0.00,SCT,OVC,0.26,0.0,WeatherDisplay:10.37,2013-04-24 16:05:00,
2013-04-24 17:10:00,53.0,33.8,30.15,NW,318,2.0,7.0,48,0.00,SCT,OVC,0.26,0.0,WeatherDisplay:10.37,2013-04-24 16:10:00,
2013-04-24 17:15:00,52.9,34.2,30.15,NW,319,3.0,11.0,49,0.00,SCT,OVC,0.26,0.0,WeatherDisplay:10.37,2013-04-24 16:15:00,
2013-04-24 17:20:00,53.3,34.6,30.15,NW,311,5.0,5.0,49,0.00,SCT,OVC,0.26,0.0,WeatherDisplay:10.37,2013-04-24 16:20:00,
2013-04-24 17:25:00,53.4,36.7,30.16,WNW,298,4.0,4.0,53,0.00,SCT,OVC,0.26,0.0,WeatherDisplay:10.37,2013-04-24 16:25:00,
2013-04-24 17:30:00,53.0,35.8,30.16,WNW,293,5.0,5.0,52,0.00,SCT,OVC,0.26,0.0,WeatherDisplay:10.37,2013-04-24 16:30:00,
2013-04-24 17:35:00,52.7,34.6,30.16,NNE,30,3.5,3.5,50,0.00,FEW,OVC,0.26,0.0,WeatherDisplay:10.37,2013-04-24 16:35:00,
2013-04-24 17:40:00,52.7,36.5,30.16,North,2,1.0,11.0,54,0.00,FEW,OVC,0.26,0.0,WeatherDisplay:10.37,2013-04-24 16:40:00,
2013-04-24 17:45:00,52.6,35.0,30.16,NE,36,4.6,4.6,51,0.00,FEW,OVC,0.26,0.0,WeatherDisplay:10.37,2013-04-24 16:45:00,
2013-04-24 17:50:00,52.6,34.5,30.16,NNW,332,3.0,11.0,50,0.00,FEW,OVC,0.26,0.0,WeatherDisplay:10.37,2013-04-24 16:50:00,
2013-04-24 17:55:00,52.8,36.6,30.16,NNW,337,1.0,11.0,54,0.00,FEW,OVC,0.26,0.0,WeatherDisplay:10.37,2013-04-24 16:55:00,
2013-04-24 18:00:00,53.0,36.8,30.16,NW,314,4.0,4.0,54,0.00,FEW,OVC,0.26,0.0,WeatherDisplay:10.37,2013-04-24 17:00:00,
2013-04-24 18:05:00,52.8,36.1,30.16,NNW,342,1.0,6.0,53,0.00,FEW,OVC,0.26,0.0,WeatherDisplay:10.37,2013-04-24 17:05:00,
2013-04-24 18:10:00,52.7,36.0,30.16,NW,321,4.0,4.0,53,0.00,FEW,OVC,0.26,0.0,WeatherDisplay:10.37,2013-04-24 17:10:00,
2013-04-24 18:15:00,52.4,35.8,30.16,NW,323,4.6,4.6,53,0.00,FEW,OVC,0.26,0.0,WeatherDisplay:10.37,2013-04-24 17:15:00,
2013-04-24 18:20:00,52.2,36.0,30.17,North,1,3.5,3.5,54,0.00,FEW,OVC,0.26,0.0,WeatherDisplay:10.37,2013-04-24 17:20:00,
2013-04-24 18:25:00,52.1,36.4,30.17,NW,304,2.3,2.3,55,0.00,FEW,OVC,0.26,0.0,WeatherDisplay:10.37,2013-04-24 17:25:00,
2013-04-24 18:30:00,52.0,34.9,30.17,North,360,3.5,3.5,52,0.00,FEW,OVC,0.26,0.0,WeatherDisplay:10.37,2013-04-24 17:30:00,
2013-04-24 18:35:00,51.9,35.3,30.17,NW,326,3.5,3.5,53,0.00,FEW,OVC,0.26,0.0,WeatherDisplay:10.37,2013-04-24 17:35:00,
2013-04-24 18:40:00,51.6,34.0,30.17,NW,321,3.5,3.5,51,0.00,FEW,OVC,0.26,0.0,WeatherDisplay:10.37,2013-04-24 17:40:00,
2013-04-24 18:45:00,51.4,35.8,30.18,NE,34,2.3,2.3,55,0.00,FEW,OVC,0.26,0.0,WeatherDisplay:10.37,2013-04-24 17:45:00,
2013-04-24 18:50:00,51.2,35.1,30.18,NNW,346,3.5,3.5,54,0.00,FEW,OVC,0.26,0.0,WeatherDisplay:10.37,2013-04-24 17:50:00,
2013-04-24 18:55:00,51.1,34.5,30.17,NW,311,3.0,3.0,53,0.00,FEW,OVC,0.26,0.0,WeatherDisplay:10.37,2013-04-24 17:55:00,
2013-04-24 19:00:00,51.0,34.5,30.18,NNW,333,1.0,11.0,53,0.00,FEW,OVC,0.26,0.0,WeatherDisplay:10.37,2013-04-24 18:00:00,
2013-04-24 19:05:00,50.7,33.7,30.18,NNW,327,2.0,3.0,52,0.00,FEW,OVC,0.26,0.0,WeatherDisplay:10.37,2013-04-24 18:05:00,
2013-04-24 19:10:00,50.4,33.9,30.18,NW,318,3.5,3.5,53,0.00,FEW,OVC,0.26,0.0,WeatherDisplay:10.37,2013-04-24 18:10:00,
2013-04-24 19:15:00,50.2,34.6,30.19,NW,322,1.0,11.0,55,0.00,FEW,OVC,0.26,0.0,WeatherDisplay:10.37,2013-04-24 18:15:00,
2013-04-24 19:20:00,49.9,33.0,30.19,NNW,328,2.3,2.3,52,0.00,FEW,OVC,0.26,0.0,WeatherDisplay:10.37,2013-04-24 18:20:00,
2013-04-24 19:25:00,49.8,34.3,30.19,NNW,332,3.5,3.5,55,0.00,FEW,OVC,0.26,0.0,WeatherDisplay:10.37,2013-04-24 18:25:00,
2013-04-24 19:30:00,49.5,34.0,30.19,NW,316,2.0,11.0,55,0.00,FEW,OVC,0.26,0.0,WeatherDisplay:10.37,2013-04-24 18:30:00,
2013-04-24 19:35:00,49.1,35.0,30.19,NW,313,1.0,11.0,58,0.00,FEW,OVC,0.26,0.0,WeatherDisplay:10.37,2013-04-24 18:35:00,
2013-04-24 19:40:00,48.8,34.7,30.19,NW,309,1.0,11.0,58,0.00,FEW,OVC,0.26,0.0,WeatherDisplay:10.37,2013-04-24 18:40:00,
2013-04-24 19:45:00,48.7,35.0,30.19,NW,313,1.0,11.0,59,0.00,FEW,OVC,0.26,0.0,WeatherDisplay:10.37,2013-04-24 18:45:00,
2013-04-24 19:50:00,48.5,34.8,30.19,NW,307,2.3,2.3,59,0.00,FEW,OVC,0.26,0.0,WeatherDisplay:10.37,2013-04-24 18:50:00,
2013-04-24 19:55:00,48.4,34.7,30.19,NW,323,1.0,11.0,59,0.00,FEW,OVC,0.26,0.0,WeatherDisplay:10.37,2013-04-24 18:55:00,
2013-04-24 20:00:00,48.4,34.7,30.20,NNW,327,1.0,11.0,59,0.00,FEW,OVC,0.26,0.0,WeatherDisplay:10.37,2013-04-24 19:00:00,
2013-04-24 20:05:00,48.3,35.0,30.20,NW,308,1.2,1.2,60,0.00,CLR,OVC,0.26,0.0,WeatherDisplay:10.37,2013-04-24 19:05:00,
2013-04-24 20:10:00,48.2,35.0,30.20,NW,312,0.0,11.0,60,0.00,CLR,OVC,0.26,0.0,WeatherDisplay:10.37,2013-04-24 19:10:00,
2013-04-24 20:15:00,48.0,35.2,30.20,NW,313,0.0,11.0,61,0.00,CLR,OVC,0.26,0.0,WeatherDisplay:10.37,2013-04-24 19:15:00,
2013-04-24 20:20:00,47.7,35.7,30.20,NW,326,1.0,1.0,63,0.00,CLR,OVC,0.26,0.0,WeatherDisplay:10.37,2013-04-24 19:20:00,
2013-04-24 20:25:00,47.5,35.1,30.20,NW,316,1.0,11.0,62,0.00,CLR,OVC,0.26,0.0,WeatherDisplay:10.37,2013-04-24 19:25:00,
2013-04-24 20:30:00,47.5,35.5,30.20,NW,312,0.0,0.0,63,0.00,CLR,OVC,0.26,0.0,WeatherDisplay:10.37,2013-04-24 19:30:00,
2013-04-24 20:35:00,47.4,34.6,30.21,NW,322,0.0,11.0,61,0.00,CLR,OVC,0.26,0.0,WeatherDisplay:10.37,2013-04-24 19:35:00,
2013-04-24 20:40:00,47.3,36.5,30.21,NNE,16,1.2,1.2,66,0.00,CLR,OVC,0.26,0.0,WeatherDisplay:10.37,2013-04-24 19:40:00,
2013-04-24 20:45:00,47.0,36.2,30.20,NW,320,2.3,2.3,66,0.00,CLR,OVC,0.26,0.0,WeatherDisplay:10.37,2013-04-24 19:45:00,
2013-04-24 20:50:00,46.8,36.0,30.20,NNW,329,0.0,11.0,66,0.00,CLR,OVC,0.26,0.0,WeatherDisplay:10.37,2013-04-24 19:50:00,
2013-04-24 20:55:00,46.8,36.0,30.21,NW,320,0.0,11.0,66,0.00,CLR,OVC,0.26,0.0,WeatherDisplay:10.37,2013-04-24 19:55:00,
2013-04-24 21:00:00,46.7,36.3,30.21,NW,321,1.2,1.2,67,0.00,CLR,OVC,0.26,0.0,WeatherDisplay:10.37,2013-04-24 20:00:00,
2013-04-24 21:05:00,46.6,36.6,30.21,NW,313,1.0,3.0,68,0.00,CLR,OVC,0.26,0.0,WeatherDisplay:10.37,2013-04-24 20:05:00,
2013-04-24 21:10:00,46.4,36.4,30.21,NW,308,2.3,2.3,68,0.00,CLR,OVC,0.26,0.0,WeatherDisplay:10.37,2013-04-24 20:10:00,
2013-04-24 21:15:00,46.3,36.7,30.21,NW,308,1.0,11.0,69,0.00,CLR,OVC,0.26,0.0,WeatherDisplay:10.37,2013-04-24 20:15:00,
2013-04-24 21:20:00,46.0,37.1,30.22,WNW,303,0.0,11.0,71,0.00,CLR,OVC,0.26,0.0,WeatherDisplay:10.37,2013-04-24 20:20:00,
2013-04-24 21:25:00,45.9,37.0,30.22,NW,316,2.3,2.3,71,0.00,CLR,OVC,0.26,0.0,WeatherDisplay:10.37,2013-04-24 20:25:00,
2013-04-24 21:30:00,45.8,36.6,30.22,NW,308,1.0,11.0,70,0.00,CLR,OVC,0.26,0.0,WeatherDisplay:10.37,2013-04-24 20:30:00,
2013-04-24 21:35:00,45.7,37.2,30.22,NW,308,1.0,11.0,72,0.00,CLR,OVC,0.26,0.0,WeatherDisplay:10.37,2013-04-24 20:35:00,
2013-04-24 21:40:00,45.5,37.0,30.22,NW,323,1.2,1.2,72,0.00,CLR,OVC,0.26,0.0,WeatherDisplay:10.37,2013-04-24 20:40:00,
2013-04-24 21:45:00,45.4,36.9,30.22,NW,310,0.0,11.0,72,0.00,CLR,OVC,0.26,0.0,WeatherDisplay:10.37,2013-04-24 20:45:00,
2013-04-24 21:50:00,45.2,37.1,30.21,WNW,297,0.0,0.0,73,0.00,CLR,OVC,0.26,0.0,WeatherDisplay:10.37,2013-04-24 20:50:00,
2013-04-24 21:55:00,45.1,37.0,30.22,WNW,300,0.0,0.0,73,0.00,CLR,OVC,0.26,0.0,WeatherDisplay:10.37,2013-04-24 20:55:00,
2013-04-24 22:00:00,45.0,36.5,30.22,WNW,302,0.0,11.0,72,0.00,CLR,OVC,0.26,0.0,WeatherDisplay:10.37,2013-04-24 21:00:00,
2013-04-24 22:05:00,45.0,36.9,30.22,NW,311,0.0,1.0,73,0.00,CLR,OVC,0.26,0.0,WeatherDisplay:10.37,2013-04-24 21:05:00,
2013-04-24 22:10:00,45.0,36.9,30.22,WNW,302,1.2,1.2,73,0.00,CLR,OVC,0.26,0.0,WeatherDisplay:10.37,2013-04-24 21:10:00,
2013-04-24 22:15:00,44.9,36.8,30.22,NW,314,1.0,11.0,73,0.00,CLR,OVC,0.26,0.0,WeatherDisplay:10.37,2013-04-24 21:15:00,
2013-04-24 22:20:00,44.9,36.8,30.22,NW,316,0.0,11.0,73,0.00,CLR,OVC,0.26,0.0,WeatherDisplay:10.37,2013-04-24 21:20:00,
2013-04-24 22:25:00,44.9,36.8,30.22,WNW,292,1.2,0.0,73,0.00,CLR,OVC,0.26,0.0,WeatherDisplay:10.37,2013-04-24 21:25:00,
2013-04-24 22:30:00,44.8,36.7,30.22,WNW,292,0.0,11.0,73,0.00,CLR,OVC,0.26,0.0,WeatherDisplay:10.37,2013-04-24 21:30:00,
2013-04-24 22:35:00,44.6,36.8,30.22,NW,317,1.2,1.2,74,0.00,CLR,OVC,0.26,0.0,WeatherDisplay:10.37,2013-04-24 21:35:00,
2013-04-24 22:40:00,44.5,37.1,30.22,NW,309,0.0,11.0,75,0.00,CLR,OVC,0.26,0.0,WeatherDisplay:10.37,2013-04-24 21:40:00,
2013-04-24 22:45:00,44.4,37.0,30.22,NW,307,0.0,11.0,75,0.00,CLR,OVC,0.26,0.0,WeatherDisplay:10.37,2013-04-24 21:45:00,
2013-04-24 22:50:00,44.4,37.0,30.22,NW,308,0.0,11.0,75,0.00,CLR,OVC,0.26,0.0,WeatherDisplay:10.37,2013-04-24 21:50:00,
2013-04-24 22:55:00,44.3,36.9,30.22,NW,308,0.0,11.0,75,0.00,CLR,OVC,0.26,0.0,WeatherDisplay:10.37,2013-04-24 21:55:00,
2013-04-24 23:00:00,44.1,37.0,30.22,NW,310,0.0,11.0,76,0.00,CLR,OVC,0.26,0.0,WeatherDisplay:10.37,2013-04-24 22:00:00,
2013-04-24 23:05:00,43.9,36.5,30.22,NW,307,0.0,0.0,75,0.00,CLR,OVC,0.26,0.0,WeatherDisplay:10.37,2013-04-24 22:05:00,
2013-04-24 23:10:00,43.9,36.5,30.22,NW,307,0.0,11.0,75,0.00,CLR,OVC,0.26,0.0,WeatherDisplay:10.37,2013-04-24 22:10:00,
2013-04-24 23:15:00,43.9,36.5,30.22,NW,308,0.0,11.0,75,0.00,CLR,OVC,0.26,0.0,WeatherDisplay:10.37,2013-04-24 22:15:00,
2013-04-24 23:20:00,44.0,36.9,30.21,NW,310,0.0,11.0,76,0.00,CLR,OVC,0.26,0.0,WeatherDisplay:10.37,2013-04-24 22:20:00,
2013-04-24 23:25:00,44.0,37.0,30.21,NW,304,0.0,11.0,76,0.00,CLR,OVC,0.26,0.0,WeatherDisplay:10.37,2013-04-24 22:25:00,
2013-04-24 23:30:00,44.0,36.6,30.21,WNW,298,0.0,0.0,75,0.00,CLR,OVC,0.26,0.0,WeatherDisplay:10.37,2013-04-24 22:30:00,
2013-04-24 23:35:00,44.1,36.7,30.21,WNW,298,0.0,0.0,75,0.00,CLR,OVC,0.26,0.0,WeatherDisplay:10.37,2013-04-24 22:35:00,
2013-04-24 23:40:00,44.1,37.0,30.21,NNW,335,0.0,11.0,76,0.00,CLR,OVC,0.26,0.0,WeatherDisplay:10.37,2013-04-24 22:40:00,
2013-04-24 23:45:00,44.1,37.0,30.21,NNE,30,0.0,0.0,76,0.00,CLR,OVC,0.26,0.0,WeatherDisplay:10.37,2013-04-24 22:45:00,
2013-04-24 23:50:00,44.1,37.0,30.21,NNE,30,0.0,0.0,76,0.00,CLR,OVC,0.26,0.0,WeatherDisplay:10.37,2013-04-24 22:50:00,
2013-04-24 23:55:00,44.0,36.9,30.21,NNE,30,0.0,11.0,76,0.00,CLR,OVC,0.26,0.0,WeatherDisplay:10.37,2013-04-24 22:55:00,